TimeCDT,TemperatureF,Dew PointF,Humidity,Sea Level PressureIn,VisibilityMPH,Wind Direction,Wind SpeedMPH,Gust SpeedMPH,PrecipitationIn,Events,Conditions,WindDirDegrees,DateUTC
12:15 AM,60.8,42.8,52,29.78,7.0,SSW,4.6,-,0.03,Rain-Thunderstorm,Light Thunderstorms and Rain,200,2013-03-10 06:15:00
12:30 AM,59.0,44.6,59,29.77,10.0,SSE,4.6,-,0.04,Rain,Light Rain,160,2013-03-10 06:30:00
12:54 AM,59.0,45.0,60,29.77,10.0,Variable,3.5,-,0.04,,Mostly Cloudy,0,2013-03-10 06:54:00
1:45 AM,59.0,44.6,59,29.79,10.0,WSW,4.6,-,N/A,Thunderstorm,Overcast,250,2013-03-10 07:45:00
1:54 AM,57.9,46.0,65,29.78,10.0,West,5.8,-,0.00,Rain-Thunderstorm,Light Rain,260,2013-03-10 07:54:00
3:03 AM,55.4,46.4,72,29.78,10.0,SSW,3.5,-,0.00,Rain,Light Rain,200,2013-03-10 08:03:00
3:54 AM,55.0,46.0,72,29.75,10.0,SSE,5.8,-,0.04,Rain,Light Rain,160,2013-03-10 08:54:00
4:54 AM,53.1,46.9,80,29.73,7.0,ESE,4.6,-,0.03,Rain,Light Rain,110,2013-03-10 09:54:00
5:54 AM,55.0,46.0,72,29.71,10.0,Calm,Calm,-,0.00,,Mostly Cloudy,0,2013-03-10 10:54:00
6:54 AM,57.2,46.4,67,29.74,10.0,SSW,6.9,16.1,N/A,Rain,Light Rain,210,2013-03-10 11:54:00
7:54 AM,55.0,50.0,83,29.73,5.0,SSE,8.1,-,0.09,Rain,Light Rain,160,2013-03-10 12:54:00
8:54 AM,55.0,52.0,89,29.73,5.0,South,10.4,-,0.05,Rain,Light Rain,180,2013-03-10 13:54:00
9:54 AM,55.9,52.0,87,29.68,4.0,SSE,8.1,-,0.05,Rain,Light Rain,160,2013-03-10 14:54:00
10:54 AM,54.0,52.0,93,29.71,3.0,Calm,Calm,-,0.19,Rain,Rain,0,2013-03-10 15:54:00
11:54 AM,54.0,53.1,97,29.68,3.0,North,4.6,-,0.15,Rain,Rain,10,2013-03-10 16:54:00
11:59 AM,55.4,51.8,88,29.69,3.0,Calm,Calm,-,0.00,Rain,Rain,0,2013-03-10 16:59:00
12:07 PM,53.6,53.6,100,29.69,1.8,Calm,Calm,-,0.02,Rain,Rain,0,2013-03-10 17:07:00
12:26 PM,53.6,51.8,94,29.70,1.8,West,8.1,-,0.04,Rain,Rain,280,2013-03-10 17:26:00
12:47 PM,53.6,48.2,82,29.69,8.0,West,12.7,-,0.06,Rain,Light Rain,280,2013-03-10 17:47:00
12:54 PM,53.1,48.9,86,29.68,9.0,West,12.7,-,0.07,Rain,Light Rain,280,2013-03-10 17:54:00
1:54 PM,52.0,48.9,89,29.73,4.0,WSW,10.4,-,0.07,Rain,Rain,250,2013-03-10 18:54:00
2:54 PM,52.0,48.9,89,29.67,10.0,East,3.5,-,0.12,Rain,Light Rain,80,2013-03-10 19:54:00
3:54 PM,51.1,48.9,92,29.65,10.0,SSE,4.6,-,0.04,,Overcast,160,2013-03-10 20:54:00
4:03 PM,51.8,48.2,88,29.68,7.0,West,8.1,17.3,0.01,Rain,Rain,260,2013-03-10 21:03:00
4:54 PM,52.0,48.9,89,29.66,6.0,South,5.8,-,0.04,Rain,Light Rain,180,2013-03-10 21:54:00
5:54 PM,53.1,48.9,86,29.66,10.0,South,9.2,-,0.00,,Overcast,170,2013-03-10 22:54:00
6:54 PM,53.1,48.9,86,29.67,10.0,South,5.8,-,N/A,,Scattered Clouds,180,2013-03-10 23:54:00
7:54 PM,52.0,48.9,89,29.68,10.0,South,3.5,-,N/A,,Mostly Cloudy,170,2013-03-11 00:54:00
8:54 PM,50.0,46.0,86,29.71,10.0,WSW,8.1,-,0.04,Rain,Light Rain,240,2013-03-11 01:54:00
9:18 PM,48.2,46.4,93,29.72,10.0,WSW,8.1,-,0.01,,Overcast,250,2013-03-11 02:18:00
9:54 PM,48.0,44.1,86,29.74,10.0,West,11.5,-,0.01,Rain,Light Rain,260,2013-03-11 02:54:00
10:49 PM,46.4,42.8,87,29.74,10.0,West,8.1,-,0.00,Rain,Light Rain,260,2013-03-11 03:49:00
10:54 PM,46.0,42.1,86,29.74,10.0,West,8.1,-,0.00,Rain,Light Rain,260,2013-03-11 03:54:00
11:05 PM,46.4,42.8,87,29.74,10.0,West,8.1,-,0.00,,Overcast,260,2013-03-11 04:05:00
11:23 PM,46.4,42.8,87,29.74,10.0,WSW,5.8,-,0.00,,Overcast,250,2013-03-11 04:23:00
11:54 PM,46.4,41.0,81,29.73,10.0,WSW,9.2,-,N/A,,Overcast,250,2013-03-11 04:54:00
12:01 AM,46.4,41.0,81,29.73,10.0,West,8.1,-,N/A,,Overcast,280,2013-03-11 05:01:00
12:13 AM,44.6,39.2,81,29.74,10.0,West,13.8,-,N/A,,Overcast,270,2013-03-11 05:13:00
12:54 AM,44.1,39.0,82,29.75,10.0,West,11.5,-,N/A,,Overcast,260,2013-03-11 05:54:00